Location: Ariel
(45.9570°N, 122.5700°W)
Time: 15:41:37
(UTC-07:00)

Transit 4A - Pass Details

Date: 20 July 2019
Orbit: 863 x 981 km, 66.8° (Epoch: 18 August)

Event Time Altitude Azimuth Distance (km) Brightness Sun altitude
Rises 02:34:57 0° 198° (SSW) 3,632 - -21.0°
Reaches altitude 10° 02:37:30 10° 195° (SSW) 2,701 - -20.9°
Exits shadow 02:41:08 35° 180° (S) 1,513 8.5 -20.7°
Maximum altitude 02:43:43 60° 117° (ESE) 1,110 8.2 -20.5°
Drops below altitude 10° 02:50:02 10° 39° (NE) 2,742 11.5 -20.1°
Sets 02:52:38 0° 36° (NE) 3,691 12.5 -19.9°
